Вернуться в каталог

STARLINK-32438

АктивенСвязьVLEO
NORAD 61722·PAYLOAD·🇺🇸 United States

Запущен Oct 30, 2024 с Cape Canaveral Space Force Station

Loading…

Ближайшие Пролёты (ближайшие 24 часа)

TLE

СвежийSource: CelesTrak SupGP

Эпоха: Sep 15, 2026, 02:31 UTC

1 61722C 24196R   26258.10534722  .00032356  00000+0  95586-3 0  2589
2 61722  53.1591 298.9202 0001234  89.2871 272.7927 15.34377541    18

Отслеживайте STARLINK-32438 в реальном времени с AllMySat

Download on the App Store